This demonstration page uses our WeatherBlox Daily Observations layout. Learn more.

Left ArrowRight Arrow

38.83388, -104.82136

Hourly Observations for May 13, 2018

Temp ( °F °C ) Dew Point ( °F °C ) Humidity (%) Winds ( mph kmh ) Pressure ( in mb ) Visibility ( mi km ) Precip ( " mm )
12:18 am 00:18 Cloudy with Light Rain 52 11 50 10 94 94 S 9 15 29.58 1002 7 11 0.00 0.00
12:33 am 00:33 Cloudy with Light Showers 52 11 50 10 94 94 SSE 9 15 29.58 1002 6 10 0.00 0.00
12:37 am 00:37 Cloudy with Mist and Fog 52 11 50 10 94 94 SE 9 15 29.58 1002 6 10 0.00 0.00
12:57 am 00:57 Cloudy with Mist and Fog 52 11 50 10 94 94 SSE 12 19 29.58 1002 4 6 0.00 0.00
12:58 am 00:58 Cloudy with Mist and Fog 52 10.9 50 9.8 93 93 SSE 12 19 29.58 1002 4 6 0.00 0.00
1:43 am 01:43 Mostly Cloudy with Mist and Fog 52 11 50 10 94 94 SSE 9 15 29.55 1001 7 11 0.00 0.00
1:54 am 01:54 Mostly Cloudy with Light Rain 50 10 50 10 100 100 SSE 10 17 29.56 1001 3 5 0.00 0.00
1:58 am 01:58 Mostly Cloudy with Drizzle 51 10.4 50 9.9 97 97 SSE 9 15 29.56 1001 5 8 0.00 0.00
2:58 am 02:58 Mostly Cloudy with Light Rain 50 10.1 49 9.7 97 97 SSE 12 19 29.52 1000 1 2 0.00 0.00
3:58 am 03:58 Mostly Cloudy with Light Rain 50 10 49 9.7 98 98 SE 10 17 29.53 1000 5 8 0.00 0.00
4:58 am 04:58 Mostly Cloudy with Light Rain 50 9.8 49 9.5 98 98 SSE 10 17 29.54 1001 5 8 0.00 0.00
5:58 am 05:58 Mostly Cloudy with Light Rain 49 9.4 48 9.1 98 98 S 9 15 29.56 1001 1 2 0.00 0.00
6:58 am 06:58 Mostly Cloudy with Light Showers 49 9.2 48 8.9 98 98 SSE 5 7 29.57 1001 5 8 0.00 0.00
7:06 am 07:06 Mostly Cloudy with Fog 48 9 48 9 100 100 SE 5 7 29.58 1002 3 5 0.00 0.00
7:36 am 07:36 Mostly Cloudy with Mist and Fog 48 9 48 9 100 100 SE 9 15 29.57 1001 1 2 0.00 0.00
7:52 am 07:52 Mostly Cloudy with Light Rain 50 10 48 9 94 94 SSE 13 20 29.57 1001 3 5 0.00 0.00
7:58 am 07:58 Mostly Cloudy with Light Showers 49 9.4 48 8.9 97 97 SSE 13 20 29.57 1001 1 2 0.00 0.00
8:08 am 08:08 Mostly Cloudy with Mist and Fog 50 10 48 9 94 94 SSE 14 22 29.58 1002 6 10 0.00 0.00
8:18 am 08:18 Partly Cloudy 50 10 50 10 100 100 SE 12 19 29.58 1002 7 11 0.00 0.00
8:58 am 08:58 Mostly Cloudy 53 11.7 49 9.4 86 86 SSE 12 19 29.59 1002 10 16 0.00 0.00
9:08 am 09:08 Mostly Cloudy 54 12 48 9 82 82 SSE 16 26 29.59 1002 10 16 0.00 0.00
9:33 am 09:33 Mostly Cloudy 55 13 48 9 77 77 SSE 20 31 29.59 1002 10 16 0.00 0.00
9:53 am 09:53 Partly Cloudy 57 14 48 9 72 72 S 18 30 29.57 1001 10 16 0.00 0.00
9:58 am 09:58 Partly Cloudy 57 13.7 48 8.9 73 73 SSE 15 24 29.57 1001 10 16 0.00 0.00
10:58 am 10:58 Sunny 60 15.5 47 8.4 63 63 SSE 15 24 29.58 1002 10 16 0.00 0.00
11:58 am 11:58 Sunny 62 16.6 47 8.1 57 57 SSE 14 22 29.58 1002 10 16 0.00 0.00
12:58 pm 12:58 Sunny 65 18.3 42 5.6 43 43 SE 14 22 29.56 1001 10 16 0.00 0.00
1:58 pm 13:58 Sunny 67 19.6 43 5.9 41 41 ESE 18 30 29.51 999 10 16 0.00 0.00
2:58 pm 14:58 Partly Cloudy 66 18.8 40 4.5 39 39 SE 17 28 29.51 999 10 16 0.00 0.00
3:58 pm 15:58 Mostly Sunny 67 19.2 38 3.5 35 35 SSE 9 15 29.49 999 10 16 0.00 0.00
4:58 pm 16:58 Partly Cloudy 69 20.6 35 1.5 28 28 SE 14 22 29.48 998 10 16 0.00 0.00
5:58 pm 17:58 Mostly Cloudy 62 16.9 45 7.2 53 53 NNW 6 9 29.53 1000 10 16 0.00 0.00
6:58 pm 18:58 Mostly Cloudy 58 14.2 47 8.5 69 69 NNW 8 13 29.55 1001 10 16 0.00 0.00
7:58 pm 19:58 Mostly Cloudy 56 13.5 46 7.9 69 69 N 13 20 29.57 1001 10 16 0.00 0.00
8:58 pm 20:58 Mostly Clear 55 13 46 7.8 71 71 NNW 13 20 29.59 1002 10 16 0.00 0.00
9:58 pm 21:58 Mostly Clear 53 11.8 46 7.8 77 77 NW 15 24 29.60 1002 10 16 0.00 0.00
10:58 pm 22:58 Mostly Cloudy 54 12.1 46 7.8 75 75 NNW 12 19 29.61 1003 10 16 0.00 0.00
11:43 pm 23:43 Cloudy 54 12 46 8 77 77 NNW 13 20 29.61 1003 10 16 0.00 0.00
11:58 pm 23:58 Cloudy 53 11.8 47 8.1 78 78 NNW 14 22 29.61 1003 10 16 0.00 0.00

Powered by AerisWeather